Weather reports worldwide

Advertisment
Linton-On-Ouse, United Kingdom (3266): temperature & dewpoint: 17.09.2020 00:00:00 - 23.09.2020 00:00:00 (BST)Linton-On-Ouse, United Kingdom (3266): wind speed: 17.09.2020 00:00:00 - 23.09.2020 00:00:00 (BST)Linton-On-Ouse, United Kingdom (3266): wind direction: 17.09.2020 00:00:00 - 23.09.2020 00:00:00 (BST)Linton-On-Ouse, United Kingdom (3266): reduced air pressure: 17.09.2020 00:00:00 - 23.09.2020 00:00:00 (BST)Linton-On-Ouse, United Kingdom (3266): visibility: 17.09.2020 00:00:00 - 23.09.2020 00:00:00 (BST)
Date & Time tt [°C] td [°C] ff [km/h] ff [kn] dd ppp [hPa] vv [km]
23.09.2020 00:00:00 15,9 12,5 18 10 SW 1000,7 40
22.09.2020 23:00:00 16,2 12,4 16 9 SW 1001,1 35
22.09.2020 22:00:00 16,4 12,7 16 9 SSW 1001,5 19
22.09.2020 21:00:00 16,4 12,6 11 6 SW 1002,0 22
22.09.2020 20:00:00 16,4 13,0 8 4 SW 1002,3 17
22.09.2020 19:00:00 16,4 13,0 5 3 SW 1002,6 17
22.09.2020 18:00:00 16,8 13,2 13 7 W 1002,9 18
22.09.2020 17:00:00 17,0 13,6 21 11 W 1003,5 13
22.09.2020 16:00:00 19,6 13,9 24 13 WSW 1003,9 13
22.09.2020 15:00:00 20,9 14,3 24 13 WSW 1004,5 21
22.09.2020 14:00:00 22,2 13,9 29 16 SW 1004,7 35
22.09.2020 13:00:00 21,2 13,6 18 10 S 1005,3 18
22.09.2020 12:00:00 19,0 13,4 21 11 S 1006,2 13
22.09.2020 11:00:00 17,0 12,7 16 9 S 1007,2 12
22.09.2020 10:00:00 14,6 12,4 11 6 SSE 1008,2 8
22.09.2020 09:00:00 11,8 10,8 9 5 S 1008,9 8
22.09.2020 08:00:00 10,4 9,7 4 2 S 1009,4 6
22.09.2020 07:00:00 10,7 9,8 8 4 SW 1009,7 6
22.09.2020 06:00:00 11,3 10,0 11 6 SW 1010,1 10
22.09.2020 05:00:00 11,3 10,1 11 6 SW 1010,7 8
22.09.2020 04:00:00 11,2 9,9 5 3 S 1011,3 10
22.09.2020 03:00:00 11,7 10,5 5 3 SSW 1012,2 11
22.09.2020 02:00:00 11,8 10,4 4 2 W 1012,7 11
22.09.2020 01:00:00 11,9 10,3 13 7 S 1013,1 11
22.09.2020 00:00:00 12,6 10,5 8 4 S 1013,7 16
21.09.2020 23:00:00 14,0 11,0 11 6 SSW 1014,2 30
21.09.2020 22:00:00 14,0 11,0 8 4 SSW 1014,2 21
21.09.2020 21:00:00 15,1 11,3 5 3 WSW 1014,5 35
21.09.2020 20:00:00 15,4 10,9 9 5 WSW 1014,4 28
21.09.2020 19:00:00 16,9 11,2 4 2 W 1014,3 27
21.09.2020 18:00:00 19,3 12,4 16 9 W 1014,6 30
21.09.2020 17:00:00 20,3 13,0 18 10 WSW 1014,7 30
21.09.2020 16:00:00 20,6 12,5 18 10 WSW 1015,3 10
21.09.2020 15:00:00 20,6 12,0 21 11 WSW 1015,6 10
21.09.2020 14:00:00 20,1 11,7 21 11 WSW 1016,0 10
21.09.2020 13:00:00 19,1 11,9 18 10 WSW 1016,6 45
21.09.2020 12:00:00 17,1 11,7 16 9 SW 1017,0 10
21.09.2020 11:00:00 15,1 10,8 11 6 S 1017,8 21
21.09.2020 10:00:00 13,0 10,1 13 7 SSW 1018,0 10
21.09.2020 09:00:00 9,9 9,1 8 4 S 1018,2 10
21.09.2020 08:00:00 7,9 7,5 4 2 S 1018,4 6
21.09.2020 07:00:00 6,7 5,2 0 0 N 1018,8 10
21.09.2020 06:00:00 8,0 6,2 2 1 SSE 1018,9 12
21.09.2020 05:00:00 9,7 7,9 2 1 W 1019,3 16
21.09.2020 04:00:00 11,1 8,7 4 2 S 1019,6 25
21.09.2020 03:00:00 10,9 8,5 0 0 N 1020,5 30
21.09.2020 02:00:00 11,3 8,5 2 1 W 1021,1 45
21.09.2020 01:00:00 11,8 8,5 5 3 S 1021,1 10
21.09.2020 00:00:00 11,8 8,4 5 3 SE 1021,5 50
20.09.2020 23:00:00 12,4 8,7 5 3 SE 1021,9 50
20.09.2020 22:00:00 12,6 9,0 9 5 E 1022,1 50
20.09.2020 21:00:00 12,5 9,3 5 3 E 1022,7 45
20.09.2020 20:00:00 12,2 9,2 9 5 ENE 1022,4 50
20.09.2020 19:00:00 13,3 9,4 13 7 ENE 1022,2 50
20.09.2020 18:00:00 14,7 10,0 15 8 NE 1022,4 50
20.09.2020 17:00:00 15,8 10,2 15 8 NE 1022,3 45
20.09.2020 16:00:00 15,7 9,9 13 7 ENE 1022,6 45
20.09.2020 15:00:00 16,2 10,6 13 7 ENE 1022,7 45
20.09.2020 14:00:00 16,1 10,5 18 10 ENE 1023,3 50
20.09.2020 13:00:00 14,8 10,8 18 10 NE 1023,8 50
20.09.2020 12:00:00 15,1 11,1 15 8 NE 1024,0 50
20.09.2020 11:00:00 14,7 12,7 13 7 ENE 1023,9 9
20.09.2020 10:00:00 13,7 11,7 15 8 ENE 1024,0 50
20.09.2020 09:00:00 13,3 12,5 11 6 N 1023,9 45
20.09.2020 08:00:00 12,8 12,1 8 4 NW 1023,7 45
20.09.2020 07:00:00 12,5 11,4 8 4 NNE 1023,6 35
20.09.2020 06:00:00 12,9 10,1 9 5 ENE 1023,3 50
20.09.2020 05:00:00 10,3 9,0 9 5 NNE 1023,3 40
20.09.2020 04:00:00 10,8 9,0 9 5 NNE 1023,4 35
20.09.2020 03:00:00 11,8 10,0 11 6 NNW 1023,7 50
20.09.2020 02:00:00 11,2 9,7 11 6 NNW 1023,9 35
20.09.2020 01:00:00 11,4 9,6 11 6 NNE 1024,0 10
20.09.2020 00:00:00 8,9 7,1 11 6 NNW 1024,2 40
19.09.2020 23:00:00 12,0 9,1 9 5 N 1024,3 45
19.09.2020 22:00:00 12,6 9,8 13 7 NNE 1024,3 40
19.09.2020 21:00:00 12,7 10,1 11 6 NNE 1024,0 35
19.09.2020 20:00:00 12,9 9,8 13 7 NNE 1023,3 27
19.09.2020 19:00:00 14,4 9,5 13 7 NE 1022,8 35
19.09.2020 18:00:00 15,4 9,6 21 11 ENE 1022,7 35
19.09.2020 17:00:00 16,8 9,3 24 13 ENE 1022,6 30
19.09.2020 16:00:00 17,2 9,5 24 13 ENE 1022,8 30
19.09.2020 15:00:00 17,0 9,5 28 15 ENE 1022,9 26
19.09.2020 14:00:00 16,9 9,2 28 15 NE 1023,5 29
19.09.2020 13:00:00 16,4 8,8 24 13 ENE 1024,1 27
19.09.2020 12:00:00 15,1 8,9 22 12 ENE 1024,6 40
19.09.2020 11:00:00 15,3 9,4 21 11 ENE 1024,7 30
19.09.2020 10:00:00 14,3 9,9 18 10 NE 1024,8 22
19.09.2020 09:00:00 12,2 9,9 11 6 N 1024,8 35
19.09.2020 08:00:00 10,5 9,2 13 7 NNW 1024,7 30
19.09.2020 07:00:00 8,8 8,1 13 7 NNW 1024,3 26
19.09.2020 06:00:00 7,9 6,5 11 6 NNW 1024,3 35
19.09.2020 05:00:00 9,0 7,3 9 5 NNW 1024,7 45
19.09.2020 04:00:00 10,9 8,5 11 6 N 1025,1 40
19.09.2020 03:00:00 11,0 8,6 9 5 NNW 1025,7 45
19.09.2020 02:00:00 12,4 8,6 9 5 NE 1025,9 45
19.09.2020 01:00:00 12,7 9,0 13 7 NNE 1026,2 10
19.09.2020 00:00:00 12,8 8,3 11 6 NNE 1026,5 50
18.09.2020 23:00:00 13,7 8,5 15 8 ENE 1026,8 45
18.09.2020 22:00:00 13,8 8,7 13 7 ENE 1026,8 45
18.09.2020 21:00:00 13,8 9,0 15 8 ENE 1026,8 45
18.09.2020 20:00:00 13,9 9,1 13 7 ENE 1026,6 50
18.09.2020 19:00:00 14,0 8,8 18 10 ENE 1026,3 50
18.09.2020 18:00:00 15,2 8,9 21 11 E 1026,4 45
18.09.2020 17:00:00 16,5 9,2 22 12 E 1026,2 40
18.09.2020 16:00:00 17,3 8,4 21 11 ENE 1026,5 45
18.09.2020 15:00:00 17,1 8,9 22 12 E 1027,1 35
18.09.2020 14:00:00 16,5 8,0 28 15 E 1027,7 10
18.09.2020 13:00:00 17,3 9,9 18 10 E 1028,0 25
18.09.2020 12:00:00 15,4 9,4 18 10 E 1028,4 45
18.09.2020 11:00:00 14,9 9,8 21 11 ENE 1028,8 10
18.09.2020 10:00:00 13,4 11,3 9 5 NE 1029,3 26
18.09.2020 09:00:00 9,8 9,3 9 5 NNW 1029,5 22
18.09.2020 08:00:00 8,1 7,9 9 5 NNW 1029,4 21
18.09.2020 07:00:00 6,9 6,7 11 6 NW 1029,2 18
18.09.2020 06:00:00 5,9 5,6 11 6 NW 1028,7 16
18.09.2020 05:00:00 5,4 5,0 11 6 NW 1028,9 26
18.09.2020 04:00:00 5,0 4,2 8 4 NW 1029,0 30
18.09.2020 03:00:00 6,7 6,1 4 2 NNE 1029,2 35
18.09.2020 02:00:00 6,8 6,2 4 2 NE 1029,9 16
18.09.2020 01:00:00 7,4 6,8 5 3 NE 1030,1 10
18.09.2020 00:00:00 7,5 6,3 4 2 NE 1030,3 2,8
17.09.2020 23:00:00 10,7 9,9 4 2 E 1030,4 9
17.09.2020 22:00:00 11,4 10,3 4 2 E 1030,6 12
17.09.2020 21:00:00 12,2 10,2 11 6 E 1030,7 15
17.09.2020 20:00:00 13,2 9,8 11 6 E 1030,2 16
17.09.2020 19:00:00 15,2 10,0 15 8 E 1029,9 21
17.09.2020 18:00:00 17,2 10,0 16 9 ESE 1029,6 19
17.09.2020 17:00:00 18,4 8,8 13 7 E 1029,8 24
17.09.2020 16:00:00 18,3 8,2 11 6 E 1030,1 26
17.09.2020 15:00:00 18,9 8,4 13 7 E 1030,7 21
17.09.2020 14:00:00 17,5 8,2 13 7 ESE 1031,3 21
17.09.2020 13:00:00 17,2 9,5 13 7 SE 1031,7 24
17.09.2020 12:00:00 15,4 9,2 13 7 SE 1031,9 10
17.09.2020 11:00:00 15,0 10,1 15 8 ESE 1032,6 18
17.09.2020 10:00:00 13,4 10,2 8 4 E 1033,1 15
17.09.2020 09:00:00 9,6 9,2 4 2 NNW 1033,0 18
17.09.2020 08:00:00 7,3 7,0 8 4 NNW 1032,8 18
17.09.2020 07:00:00 6,6 5,9 5 3 NNW 1032,2 11
17.09.2020 06:00:00 7,9 7,1 4 2 N 1031,9 10
17.09.2020 05:00:00 8,7 7,5 5 3 NNW 1032,2 16
17.09.2020 04:00:00 9,9 8,2 5 3 N 1032,5 21
17.09.2020 03:00:00 10,7 8,8 5 3 N 1032,9 21
17.09.2020 02:00:00 11,1 9,2 8 4 N 1033,2 18
17.09.2020 01:00:00 11,2 9,5 9 5 N 1033,2 10
17.09.2020 00:00:00 10,6 8,8 8 4 NNW 1033,0 11

tt = temperature
td = dewpoint
ff = wind speed
dd = wind direction
ppp = reduced air pressure
vv = visibility

Next stations